This is the latest recevied weather packets stored in our database for station/object W4MSI. If no packets are shown the sender has not sent any weather packets the latest 10 day(s).
| Time | Temp. | Humidity | Pressure | Rain* | Wind** | Luminosity | Snow |
|---|---|---|---|---|---|---|---|
| 1777819292 | 12.78° C | 58% | 1021.1 hPa | 0 mm | - | 638 W/m² | - |
| 1777818988 | 13.33° C | 58% | 1021.1 hPa | 0 mm | - | 638 W/m² | - |
| 1777818686 | 13.33° C | 66% | 1021.2 hPa | 0 mm | - | 670 W/m² | - |
| 1777818382 | 13.33° C | 67% | 1021.1 hPa | 0 mm | - | 667 W/m² | - |
| 1777818079 | 12.78° C | 66% | 1021.3 hPa | 0 mm | - | 668 W/m² | - |
| 1777817775 | 12.78° C | 62% | 1021.1 hPa | 0 mm | - | 685 W/m² | - |
| 1777817474 | 12.22° C | 64% | 1021 hPa | 0 mm | - | 671 W/m² | - |
| 1777817169 | 12.22° C | 63% | 1021.1 hPa | 0 mm | - | 662 W/m² | - |
| 1777816867 | 12.22° C | 67% | 1021.2 hPa | 0 mm | - | 671 W/m² | - |
| 1777816564 | 12.78° C | 66% | 1021.2 hPa | 0 mm | - | 709 W/m² | - |
| 1777816261 | 12.78° C | 66% | 1021.1 hPa | 0 mm | - | 702 W/m² | - |
| 1777815958 | 12.78° C | 65% | 1021.2 hPa | 0 mm | - | 716 W/m² | - |
| 1777815655 | 12.22° C | 69% | 1021.2 hPa | 0 mm | - | 746 W/m² | - |
| 1777815353 | 12.22° C | 68% | 1021.1 hPa | 0 mm | - | 754 W/m² | - |
| 1777815049 | 11.67° C | 70% | 1021 hPa | 0 mm | - | 719 W/m² | - |
| 1777814746 | 11.11° C | 71% | 1021.1 hPa | 0 mm | - | 500 W/m² | - |
| 1777814443 | 11.67° C | 74% | 1021 hPa | 0 mm | - | 403 W/m² | - |
| 1777814140 | 11.67° C | 71% | 1020.9 hPa | 0 mm | - | 304 W/m² | - |
| 1777813837 | 11.67° C | 73% | 1021.1 hPa | 0 mm | - | 245 W/m² | - |
| 1777813534 | 11.67° C | 78% | 1021.3 hPa | 0 mm | - | 221 W/m² | - |
| 1777813232 | 11.11° C | 77% | 1020.8 hPa | 0 mm | - | 189 W/m² | - |
| 1777812929 | 10.56° C | 80% | 1020.8 hPa | 0 mm | - | 162 W/m² | - |
| 1777812626 | 10.56° C | 82% | 1021 hPa | 0 mm | - | 151 W/m² | - |
| 1777812322 | 10° C | 86% | 1021 hPa | 0 mm | - | 133 W/m² | - |
| 1777812021 | 10° C | 92% | 1021 hPa | 0 mm | - | 118 W/m² | - |
* Rain latest hour (hover to see other rain measurements)
** Current wind speed in m/s (hover to see current wind gust speed)